Wetterdaten: aktuell Sonntag, 21.10.2018 14:26
Datum Zeit Temp. A. Pool Temp. Temp. 5cm Feuchte A. Luftdruck Regen Wind Richtung Richtung Sonnenschein ET UV Solar Taupunkt Windchill Windben Empfang
21.10.2018 14:26 12,0 C 11,7 C 15,6 C 60 % 1027,0 hPa 0,0 l/m 3,5 km/h (1 Bft) W 277 0 min 0,000 mm 0,7 UV-I 201 W/m 4,5 C 12,0 C 4,8 km/h (1 Bft) 96,00 %
21.10.2018 14:24 12,1 C 11,7 C 15,6 C 63 % 1027,0 hPa 0,0 l/m 2,4 km/h (1 Bft) N-NO 24 0 min 0,000 mm 0,8 UV-I 231 W/m 5,3 C 12,1 C 4,8 km/h (1 Bft) 94,74 %
21.10.2018 14:22 12,0 C 11,7 C 15,6 C 62 % 1027,0 hPa 0,0 l/m 2,2 km/h (1 Bft) NW 317 2 min 0,000 mm 0,9 UV-I 257 W/m 4,9 C 12,0 C 4,8 km/h (1 Bft) 100,00 %
21.10.2018 14:20 11,9 C 11,7 C 16,1 C 63 % 1027,0 hPa 0,0 l/m 1,7 km/h (1 Bft) NW 315 2 min 0,000 mm 1,1 UV-I 264 W/m 5,1 C 11,9 C 3,2 km/h (1 Bft) 97,56 %
21.10.2018 14:18 11,7 C 11,7 C 15,6 C 62 % 1027,0 hPa 0,0 l/m 1,5 km/h (1 Bft) W-NW 300 2 min 0,000 mm 1,2 UV-I 264 W/m 4,7 C 11,7 C 3,2 km/h (1 Bft) 96,23 %
21.10.2018 14:16 11,5 C 11,7 C 15,0 C 63 % 1027,0 hPa 0,0 l/m 1,2 km/h (1 Bft) W-NW 300 0 min 0,000 mm 1,0 UV-I 257 W/m 4,7 C 11,5 C 3,2 km/h (1 Bft) 97,56 %
21.10.2018 14:14 11,5 C 11,7 C 15,0 C 63 % 1027,0 hPa 0,0 l/m 0,8 km/h (0 Bft) W-NW 300 0 min 0,000 mm 1,0 UV-I 226 W/m 4,7 C 11,5 C 3,2 km/h (1 Bft) 94,00 %
21.10.2018 14:12 11,5 C 11,7 C 14,4 C 61 % 1027,0 hPa 0,0 l/m 0,8 km/h (0 Bft) W-NW 300 0 min 0,000 mm 0,9 UV-I 196 W/m 4,2 C 11,5 C 3,2 km/h (1 Bft) 95,74 %
21.10.2018 14:10 11,6 C 11,7 C 14,4 C 61 % 1027,0 hPa 0,0 l/m 1,6 km/h (1 Bft) W-NW 300 0 min 0,000 mm 0,9 UV-I 189 W/m 4,3 C 11,6 C 3,2 km/h (1 Bft) 97,73 %
21.10.2018 14:08 11,7 C 11,7 C 14,4 C 62 % 1027,0 hPa 0,0 l/m 3,3 km/h (1 Bft) W-NW 300 0 min 0,000 mm 0,9 UV-I 197 W/m 4,7 C 11,7 C 4,8 km/h (1 Bft) 97,92 %
21.10.2018 14:06 11,6 C 11,7 C 15,0 C 64 % 1026,9 hPa 0,0 l/m 3,6 km/h (1 Bft) W-SW 244 0 min 0,000 mm 0,9 UV-I 208 W/m 5,0 C 11,6 C 4,8 km/h (1 Bft) 100,00 %
21.10.2018 14:04 11,6 C 11,7 C 15,0 C 64 % 1026,9 hPa 0,0 l/m 2,2 km/h (1 Bft) W-NW 286 0 min 0,000 mm 0,9 UV-I 211 W/m 5,0 C 11,6 C 4,8 km/h (1 Bft) 100,00 %
21.10.2018 14:02 11,5 C 11,7 C 15,0 C 62 % 1026,9 hPa 0,0 l/m 3,2 km/h (1 Bft) W 279 0 min 0,000 mm 0,9 UV-I 206 W/m 4,5 C 11,5 C 4,8 km/h (1 Bft) 100,00 %
21.10.2018 14:00 11,5 C 11,7 C 15,0 C 63 % 1026,9 hPa 0,0 l/m 1,6 km/h (1 Bft) W-NW 285 0 min 0,101 mm 0,8 UV-I 201 W/m 4,7 C 11,5 C 3,2 km/h (1 Bft) 97,72 %
21.10.2018 13:59 11,5 C 11,7 C 15,0 C 62 % 1026,9 hPa 0,0 l/m 2,6 km/h (1 Bft) W-NW 285 0 min 0,000 mm 0,8 UV-I 205 W/m 4,5 C 11,5 C 4,8 km/h (1 Bft) 100,00 %
21.10.2018 13:56 11,5 C 11,7 C 15,0 C 63 % 1026,9 hPa 0,0 l/m 2,5 km/h (1 Bft) W-NW 291 0 min 0,000 mm 0,9 UV-I 227 W/m 4,7 C 11,5 C 4,8 km/h (1 Bft) 100,00 %
21.10.2018 13:54 11,5 C 11,7 C 15,0 C 63 % 1026,8 hPa 0,0 l/m 2,5 km/h (1 Bft) W-NW 290 0 min 0,000 mm 1,0 UV-I 230 W/m 4,7 C 11,5 C 3,2 km/h (1 Bft) 96,00 %
21.10.2018 13:52 11,5 C 11,7 C 15,0 C 64 % 1026,9 hPa 0,0 l/m 2,5 km/h (1 Bft) W-NW 296 0 min 0,000 mm 1,0 UV-I 236 W/m 4,9 C 11,5 C 4,8 km/h (1 Bft) 100,00 %
21.10.2018 13:50 11,5 C 11,7 C 15,0 C 63 % 1027,0 hPa 0,0 l/m 3,3 km/h (1 Bft) W-SW 248 0 min 0,000 mm 1,0 UV-I 216 W/m 4,7 C 11,5 C 4,8 km/h (1 Bft) 100,00 %
21.10.2018 13:48 11,5 C 11,7 C 14,4 C 64 % 1027,0 hPa 0,0 l/m 1,4 km/h (1 Bft) N-NO 32 0 min 0,000 mm 1,0 UV-I 215 W/m 4,9 C 11,5 C 3,2 km/h (1 Bft) 100,00 %
21.10.2018 13:46 11,3 C 11,7 C 14,4 C 64 % 1027,0 hPa 0,0 l/m 2,5 km/h (1 Bft) N-NO 32 0 min 0,000 mm 1,0 UV-I 213 W/m 4,7 C 11,3 C 3,2 km/h (1 Bft) 98,21 %
21.10.2018 13:44 11,3 C 11,7 C 13,9 C 64 % 1027,0 hPa 0,0 l/m 2,5 km/h (1 Bft) N-NW 333 0 min 0,000 mm 0,9 UV-I 195 W/m 4,7 C 11,3 C 4,8 km/h (1 Bft) 100,00 %
21.10.2018 13:42 11,2 C 11,7 C 13,9 C 62 % 1027,0 hPa 0,0 l/m 2,4 km/h (1 Bft) W 281 0 min 0,000 mm 0,8 UV-I 180 W/m 4,2 C 11,2 C 4,8 km/h (1 Bft) 100,00 %
21.10.2018 13:40 11,3 C 11,7 C 13,3 C 63 % 1027,1 hPa 0,0 l/m 3,0 km/h (1 Bft) W 278 0 min 0,000 mm 0,7 UV-I 167 W/m 4,5 C 11,3 C 6,4 km/h (2 Bft) 100,00 %
21.10.2018 13:38 11,3 C 11,7 C 13,3 C 63 % 1027,0 hPa 0,0 l/m 3,3 km/h (1 Bft) W 264 0 min 0,000 mm 0,7 UV-I 153 W/m 4,5 C 11,3 C 4,8 km/h (1 Bft) 100,00 %
21.10.2018 13:36 11,4 C 11,7 C 13,3 C 63 % 1027,1 hPa 0,0 l/m 2,6 km/h (1 Bft) N-NW 333 0 min 0,000 mm 0,6 UV-I 144 W/m 4,6 C 11,4 C 4,8 km/h (1 Bft) 100,00 %
21.10.2018 13:34 11,4 C 11,7 C 13,3 C 63 % 1027,1 hPa 0,0 l/m 2,5 km/h (1 Bft) N-NW 332 0 min 0,000 mm 0,6 UV-I 140 W/m 4,6 C 11,4 C 4,8 km/h (1 Bft) 100,00 %
21.10.2018 13:32 11,3 C 11,7 C 13,3 C 63 % 1027,1 hPa 0,0 l/m 3,3 km/h (1 Bft) N-NW 331 0 min 0,000 mm 0,6 UV-I 140 W/m 4,5 C 11,3 C 4,8 km/h (1 Bft) 100,00 %
21.10.2018 13:30 11,3 C 11,7 C 12,8 C 64 % 1027,1 hPa 0,0 l/m 3,7 km/h (1 Bft) N-NW 330 0 min 0,000 mm 0,6 UV-I 138 W/m 4,7 C 11,3 C 4,8 km/h (1 Bft) 97,37 %
21.10.2018 13:28 11,3 C 11,7 C 12,8 C 63 % 1027,1 hPa 0,0 l/m 3,6 km/h (1 Bft) W-NW 302 0 min 0,000 mm 0,6 UV-I 133 W/m 4,5 C 11,3 C 4,8 km/h (1 Bft) 100,00 %
21.10.2018 13:26 11,3 C 11,7 C 12,8 C 65 % 1027,1 hPa 0,0 l/m 3,5 km/h (1 Bft) W-NW 300 0 min 0,000 mm 0,6 UV-I 132 W/m 5,0 C 11,3 C 4,8 km/h (1 Bft) 100,00 %
_ Min-Zeit 08:20 02:12 05:38 12:52 03:50 - 00:04 - - - - - - 13:04 03:52 00:08 07:36
Minimum _ 7,6 C 11,7 C 7,2 C 59 % 1026,0 hPa - 0,0 km/h (0 Bft) - - - - - - 4,1 C 7,3 C 0,0 km/h (0 Bft) 89,36 %
_ Max-Zeit 12:22 00:00 12:16 01:26 10:54 00:00 12:24 - - 11:08 13:00 12:18 12:12 01:08 12:44 12:20 00:00
Maximum _ 12,7 C 12,2 C 25,6 C 89 % 1027,8 hPa 0,0 l/m 10,7 km/h
N (2 Bft)
- - 2 min 0,254 mm 1,7 UV-I 674 W/m 7,9 C 12,5 C 16,1 km/h
N-NO (3 Bft)
100,00 %
Durchschnitt _ 9,5 C 11,8 C 10,8 C 79 % 1026,8 hPa #0,0 l/m 2,7 km/h (1 Bft) NO - #1:34 h #0,660 mm 1,1 UV-I 190 W/m 6,0 C 9,5 C 4,5 km/h (1 Bft) 97,65 %